| time (UTC) | temp F | wind direction | speed MPH | gust MPH | rain 1hr in | rain 24hr in | rain mn in | humidity % | barometer mb |
| 20260906141553 | 55 | 291 | 9.0 | 17.0 | 0.00 | 0.08 | 0.01 | 87 | 1019.2 |
| 20260906140110 | 58 | 297 | 8.0 | 14.0 | 0.00 | 0.08 | 0.01 | 82 | 1018.8 |
| 20260906134617 | 59 | 39 | 1.0 | 6.0 | 0.00 | 0.10 | 0.01 | 84 | 1018.7 |
| 20260906133059 | 58 | 39 | 4.0 | 9.0 | 0.00 | 0.10 | 0.01 | 84 | 1018.4 |
| 20260906131606 | 58 | 40 | 7.0 | 11.0 | 0.00 | 0.10 | 0.01 | 85 | 1018.2 |
| 20260906130107 | 57 | 339 | 3.0 | 5.0 | 0.00 | 0.10 | 0.01 | 85 | 1018.4 |
| 20260906124607 | 57 | 323 | 4.0 | 11.0 | 0.00 | 0.10 | 0.01 | 83 | 1018.7 |
| 20260906123115 | 57 | 5 | 5.0 | 12.0 | 0.00 | 0.10 | 0.01 | 85 | 1018.7 |
| 20260906121606 | 56 | 340 | 7.0 | 17.0 | 0.00 | 0.10 | 0.01 | 85 | 1018.5 |
| 20260906120107 | 57 | 34 | 13.0 | 17.0 | 0.00 | 0.10 | 0.01 | 86 | 1018.1 |
| 20260906114622 | 57 | 26 | 12.0 | 15.0 | 0.00 | 0.10 | 0.01 | 83 | 1018.4 |
| 20260906113059 | 57 | 11 | 8.0 | 12.0 | 0.00 | 0.10 | 0.01 | 82 | 1018.7 |
| 20260906111625 | 57 | 23 | 7.0 | 12.0 | 0.00 | 0.10 | 0.01 | 82 | 1018.7 |
| 20260906110054 | 57 | 34 | 7.0 | 12.0 | 0.00 | 0.10 | 0.01 | 83 | 1018.6 |
| 20260906104603 | 57 | 35 | 7.0 | 10.0 | 0.00 | 0.10 | 0.01 | 83 | 1018.7 |
| 20260906103052 | 57 | 34 | 5.0 | 12.0 | 0.00 | 0.10 | 0.01 | 84 | 1018.7 |
| 20260906101553 | 56 | 32 | 6.0 | 12.0 | 0.00 | 0.10 | 0.01 | 86 | 1018.8 |
| 20260906100054 | 56 | 23 | 9.0 | 14.0 | 0.00 | 0.10 | 0.01 | 86 | 1018.6 |
| 20260906094553 | 56 | 17 | 10.0 | 17.0 | 0.00 | 0.10 | 0.01 | 88 | 1018.8 |
| 20260906093101 | 56 | 9 | 11.0 | 19.0 | 0.00 | 0.10 | 0.01 | 87 | 1018.6 |
| 20260906091600 | 56 | 10 | 13.0 | 21.0 | 0.00 | 0.10 | 0.01 | 87 | 1018.8 |
| 20260906090113 | 56 | 352 | 15.0 | 19.0 | 0.00 | 0.10 | 0.01 | 86 | 1019.1 |
| 20260906084607 | 56 | 329 | 11.0 | 17.0 | 0.00 | 0.10 | 0.01 | 86 | 1019.5 |
| 20260906083103 | 56 | 330 | 7.0 | 14.0 | 0.00 | 0.10 | 0.01 | 87 | 1019.8 |
| 20260906081604 | 56 | 333 | 7.0 | 15.0 | 0.00 | 0.10 | 0.01 | 88 | 1020.0 |
| 20260906080057 | 56 | 273 | 7.0 | 12.0 | 0.01 | 0.10 | 0.01 | 87 | 1020.1 |
| 20260906074603 | 56 | 5 | 0.0 | 5.0 | 0.01 | 0.10 | 0.01 | 87 | 1019.6 |
| 20260906073101 | 56 | 5 | 3.0 | 13.0 | 0.01 | 0.10 | 0.01 | 87 | 1019.7 |
| 20260906071600 | 56 | 23 | 9.0 | 15.0 | 0.01 | 0.10 | 0.01 | 87 | 1019.6 |
| 20260906070114 | 56 | 352 | 12.0 | 19.0 | 0.00 | 0.09 | 0.00 | 87 | 1019.6 |
| 20260906064552 | 56 | 352 | 13.0 | 18.0 | 0.00 | 0.09 | 0.00 | 86 | 1019.8 |
| 20260906063054 | 56 | 331 | 8.0 | 15.0 | 0.01 | 0.09 | 0.00 | 86 | 1020.3 |
| 20260906061613 | 56 | 334 | 12.0 | 22.0 | 0.01 | 0.09 | 0.00 | 86 | 1020.2 |
| 20260906060104 | 56 | 309 | 7.0 | 14.0 | 0.01 | 0.09 | 0.00 | 86 | 1020.6 |
| 20260906054559 | 56 | 360 | 11.0 | 15.0 | 0.01 | 0.09 | 0.09 | 86 | 1020.2 |
| 20260906053057 | 56 | 355 | 11.0 | 16.0 | 0.00 | 0.08 | 0.08 | 87 | 1020.0 |
| 20260906051552 | 55 | 340 | 8.0 | 13.0 | 0.01 | 0.08 | 0.08 | 88 | 1019.9 |
| 20260906050115 | 55 | 337 | 6.0 | 11.0 | 0.01 | 0.08 | 0.08 | 88 | 1020.0 |
| 20260906044556 | 56 | 323 | 6.0 | 13.0 | 0.02 | 0.08 | 0.08 | 86 | 1020.3 |
| 20260906043106 | 57 | 350 | 6.0 | 15.0 | 0.02 | 0.08 | 0.08 | 85 | 1020.3 |
| 20260906041551 | 56 | 352 | 12.0 | 19.0 | 0.02 | 0.07 | 0.07 | 86 | 1019.3 |
| 20260906040115 | 56 | 343 | 13.0 | 20.0 | 0.03 | 0.07 | 0.07 | 86 | 1018.9 |
| 20260906034556 | 56 | 350 | 11.0 | 17.0 | 0.02 | 0.06 | 0.06 | 85 | 1019.1 |
| 20260906033053 | 57 | 340 | 7.0 | 13.0 | 0.02 | 0.06 | 0.06 | 82 | 1019.6 |
| 20260906031603 | 60 | 259 | 3.0 | 9.0 | 0.01 | 0.05 | 0.05 | 73 | 1020.1 |
| 20260906024552 | 60 | 0 | 1.0 | 7.0 | 0.00 | 0.04 | 0.04 | 70 | 1018.3 |
| 20260906023122 | 61 | 13 | 9.0 | 13.0 | 0.00 | 0.04 | 0.04 | 68 | 1017.8 |
| 20260906021556 | 61 | 352 | 6.0 | 12.0 | 0.00 | 0.04 | 0.04 | 67 | 1017.9 |
| 20260906020053 | 62 | 352 | 5.0 | 12.0 | 0.00 | 0.04 | 0.04 | 67 | 1017.9 |
| 20260906014606 | 62 | 352 | 7.0 | 12.0 | 0.00 | 0.04 | 0.04 | 66 | 1017.8 |
| 20260906013058 | 63 | 350 | 6.0 | 14.0 | 0.00 | 0.04 | 0.04 | 65 | 1018.0 |
| 20260906011556 | 63 | 360 | 8.0 | 15.0 | 0.00 | 0.04 | 0.04 | 64 | 1018.0 |
| 20260906010107 | 64 | 5 | 10.0 | 15.0 | 0.00 | 0.04 | 0.04 | 62 | 1018.0 |
| 20260906004613 | 65 | 347 | 8.0 | 15.0 | 0.00 | 0.04 | 0.04 | 59 | 1018.0 |
| 20260906003113 | 66 | 352 | 8.0 | 15.0 | 0.00 | 0.04 | 0.04 | 57 | 1018.1 |
| 20260906001604 | 68 | 313 | 10.0 | 17.0 | 0.00 | 0.04 | 0.04 | 54 | 1018.2 |
| 20260906000111 | 69 | 331 | 11.0 | 19.0 | 0.00 | 0.04 | 0.04 | 52 | 1018.1 |
| 20260905234602 | 69 | 322 | 12.0 | 18.0 | 0.00 | 0.04 | 0.04 | 52 | 1018.3 |
| 20260905233109 | 70 | 317 | 8.0 | 16.0 | 0.00 | 0.04 | 0.04 | 50 | 1018.4 |
| 20260905231602 | 71 | 315 | 7.0 | 13.0 | 0.00 | 0.04 | 0.04 | 49 | 1018.4 |
| 20260905230057 | 71 | 290 | 6.0 | 12.0 | 0.00 | 0.04 | 0.04 | 45 | 1018.3 |
| 20260905224604 | 72 | 327 | 5.0 | 14.0 | 0.00 | 0.04 | 0.04 | 43 | 1018.3 |
| 20260905223052 | 72 | 291 | 4.0 | 10.0 | 0.00 | 0.04 | 0.04 | 44 | 1018.3 |
| 20260905221558 | 71 | 323 | 3.0 | 9.0 | 0.00 | 0.04 | 0.04 | 44 | 1018.4 |
| 20260905220059 | 72 | 0 | 0.0 | 8.0 | 0.00 | 0.04 | 0.04 | 44 | 1018.5 |
| 20260905214553 | 72 | 325 | 1.0 | 8.0 | 0.00 | 0.04 | 0.04 | 44 | 1018.6 |
| 20260905213107 | 71 | 17 | 0.0 | 8.0 | 0.00 | 0.04 | 0.04 | 42 | 1018.6 |
| 20260905211609 | 71 | 5 | 2.0 | 7.0 | 0.00 | 0.04 | 0.04 | 43 | 1018.6 |
| 20260905210104 | 70 | 308 | 4.0 | 9.0 | 0.00 | 0.04 | 0.04 | 44 | 1018.7 |
| 20260905204600 | 70 | 273 | 3.0 | 8.0 | 0.00 | 0.04 | 0.04 | 45 | 1018.8 |
| 20260905203100 | 70 | 288 | 3.0 | 10.0 | 0.00 | 0.04 | 0.04 | 45 | 1018.9 |
| 20260905201554 | 69 | 0 | 2.0 | 9.0 | 0.00 | 0.04 | 0.04 | 45 | 1019.0 |
| 20260905200058 | 69 | 285 | 1.0 | 6.0 | 0.00 | 0.04 | 0.04 | 45 | 1019.0 |
| 20260905194604 | 68 | 285 | 3.0 | 9.0 | 0.00 | 0.04 | 0.04 | 47 | 1019.1 |
| 20260905193057 | 68 | 0 | 2.0 | 8.0 | 0.00 | 0.04 | 0.04 | 47 | 1019.1 |
| 20260905191552 | 68 | 0 | 3.0 | 9.0 | 0.00 | 0.04 | 0.04 | 48 | 1019.2 |
| 20260905184603 | 67 | 300 | 6.0 | 10.0 | 0.00 | 0.04 | 0.04 | 54 | 1019.4 |
| 20260905183125 | 66 | 298 | 4.0 | 10.0 | 0.00 | 0.04 | 0.04 | 55 | 1019.5 |
| 20260905181557 | 67 | 308 | 2.0 | 11.0 | 0.00 | 0.04 | 0.04 | 56 | 1019.5 |
| 20260905180057 | 66 | 313 | 4.0 | 8.0 | 0.00 | 0.04 | 0.04 | 57 | 1019.8 |
| 20260905174555 | 64 | 340 | 5.0 | 10.0 | 0.00 | 0.04 | 0.04 | 60 | 1019.8 |
| 20260905173101 | 63 | 332 | 4.0 | 10.0 | 0.00 | 0.04 | 0.04 | 68 | 1019.8 |
| 20260905171605 | 61 | 339 | 3.0 | 6.0 | 0.01 | 0.04 | 0.04 | 70 | 1020.0 |
| 20260905170057 | 60 | 344 | 2.0 | 9.0 | 0.01 | 0.04 | 0.04 | 73 | 1019.9 |
| 20260905164602 | 59 | 328 | 1.0 | 5.0 | 0.01 | 0.04 | 0.04 | 77 | 1020.1 |
| 20260905163054 | 58 | 328 | 0.0 | 4.0 | 0.01 | 0.04 | 0.04 | 84 | 1019.9 |
| 20260905161557 | 57 | 0 | 3.0 | 6.0 | 0.00 | 0.03 | 0.03 | 88 | 1019.8 |
| 20260905160053 | 56 | 331 | 3.0 | 5.0 | 0.01 | 0.03 | 0.03 | 89 | 1019.8 |
| 20260905154601 | 55 | 0 | 0.0 | 0.0 | 0.01 | 0.03 | 0.03 | 90 | 1019.7 |
| 20260905153059 | 55 | 0 | 0.0 | 0.0 | 0.01 | 0.03 | 0.03 | 91 | 1019.8 |
| 20260905151559 | 55 | 0 | 0.0 | 4.0 | 0.01 | 0.03 | 0.03 | 91 | 1019.6 |
| 20260905150104 | 54 | 332 | 2.0 | 5.0 | 0.00 | 0.02 | 0.02 | 92 | 1019.2 |
| 20260905144553 | 53 | 0 | 0.0 | 0.0 | 0.01 | 0.02 | 0.02 | 92 | 1019.3 |
| 20260905143101 | 52 | 332 | 2.0 | 9.0 | 0.01 | 0.02 | 0.02 | 91 | 1019.2 |